Change the Weather History Date:

Tuesday, March 25, 2014

  Actual Average Record
Temperature  
Mean Temperature 16 °F -  
Max Temperature 21 °F 43 °F 73 °F (2007)
Min Temperature 10 °F 26 °F 10 °F (2001)
Degree Days  
Heating Degree Days 50    
Moisture  
Dew Point 6 °F    
Average Humidity 64    
Maximum Humidity 92    
Minimum Humidity 53    
Precipitation  
Precipitation 0.00 in - - ()
Sea Level Pressure  
Sea Level Pressure 30.19 in    
Wind  
Wind Speed 13 mph (NW)    
Max Wind Speed 22 mph    
Max Gust Speed 30 mph    
Visibility 10 miles    
Events Snow    
Averages and records for this station are not official NWS values.
T = Trace of Precipitation, MM = Missing Value Source: NWS Daily Summary

Daily Weather History Graph

Daily Weather History Graph

Search for Another Location

Airport or City:

Trip Planner

Search our weather history database for the weather conditions in past years. The results will help you decide how hot, cold, wet, or windy it might be!

Date:

Astronomy

Mar. 25, 2014 Rise Set
Actual Time 7:05 AM CDT 7:30 PM CDT
Civil Twilight 6:37 AM CDT 7:58 PM CDT
Nautical Twilight 6:03 AM CDT 8:32 PM CDT
Astronomical Twilight 5:28 AM CDT 9:07 PM CDT
Moon 3:37 AM CDT (3/25) 1:52 PM CDT (3/25)
Length of Visible Light 13h 21m
Length of Day
12h 24m
Waning Crescent, 32% of the Moon is Illuminated
Mar 25
Waning Crescent
Mar 30
New
Apr 7
First Quarter
Apr 15
Full
Apr 22
Last Quarter

Hourly Weather History & Observations

Time (CDT) Temp. Windchill Dew Point Humidity Pressure Visibility Wind Dir Wind Speed Gust Speed Precip Events Conditions
12:15 AM 19.4 °F 10.4 °F 12.2 °F 74% 30.10 in 10.0 mi West 6.9 mph - N/A   Clear
12:35 AM 19.4 °F 10.4 °F 12.2 °F 74% 30.09 in 10.0 mi West 6.9 mph - N/A   Clear
12:55 AM 21.2 °F 8.9 °F 12.2 °F 68% 30.09 in 10.0 mi WNW 12.7 mph - N/A   Scattered Clouds
1:15 AM 21.2 °F 7.8 °F 12.2 °F 68% 30.09 in 10.0 mi WNW 15.0 mph 20.7 mph N/A   Scattered Clouds
1:35 AM 21.2 °F 8.3 °F 12.2 °F 68% 30.09 in 10.0 mi WNW 13.8 mph - N/A   Clear
1:54 AM 21.2 °F 8.3 °F 12.2 °F 68% 30.09 in 10.0 mi WNW 13.8 mph - N/A   Clear
2:15 AM 21.2 °F 7.3 °F 12.2 °F 68% 30.09 in 10.0 mi WNW 16.1 mph 20.7 mph N/A   Clear
2:35 AM 19.4 °F 4.5 °F 12.2 °F 74% 30.09 in 10.0 mi NW 17.3 mph 20.7 mph N/A   Scattered Clouds
2:54 AM 19.4 °F 4.1 °F 15.8 °F 86% 30.10 in 1.8 mi NW 18.4 mph 25.3 mph N/A Snow Light Snow
3:15 AM 19.4 °F 2.8 °F 15.8 °F 86% 30.10 in 10.0 mi NNW 21.9 mph 26.5 mph N/A   Scattered Clouds
3:35 AM 19.4 °F 2.8 °F 10.4 °F 68% 30.10 in 10.0 mi NNW 21.9 mph 29.9 mph N/A   Mostly Cloudy
3:55 AM 17.6 °F 3.2 °F 10.4 °F 73% 30.11 in 10.0 mi NNW 15.0 mph 27.6 mph N/A   Scattered Clouds
4:15 AM 17.6 °F 0.9 °F 10.4 °F 73% 30.12 in 10.0 mi NNW 20.7 mph 28.8 mph N/A   Scattered Clouds
4:35 AM 17.6 °F 0.9 °F 10.4 °F 73% 30.13 in 4.0 mi North 20.7 mph 28.8 mph N/A Snow Light Snow
4:55 AM 15.8 °F 0.3 °F 5.0 °F 62% 30.13 in 10.0 mi NNW 16.1 mph 26.5 mph N/A   Scattered Clouds
5:15 AM 14.0 °F -3.9 °F 3.2 °F 62% 30.15 in 10.0 mi NNW 20.7 mph 26.5 mph N/A   Clear
5:35 AM 12.2 °F -3.7 °F 1.4 °F 62% 30.16 in 10.0 mi NNW 15.0 mph 28.8 mph N/A   Clear
5:55 AM 12.2 °F -4.8 °F 1.4 °F 62% 30.16 in 10.0 mi NNW 17.3 mph 23.0 mph N/A   Clear
6:15 AM 10.4 °F -7.2 °F -0.4 °F 62% 30.17 in 10.0 mi NW 17.3 mph 26.5 mph N/A   Clear
6:35 AM 10.4 °F -5.4 °F -0.4 °F 62% 30.18 in 10.0 mi NW 13.8 mph - N/A   Clear
6:55 AM 10.4 °F -7.2 °F -0.4 °F 62% 30.19 in 10.0 mi NW 17.3 mph 26.5 mph N/A   Clear
7:15 AM 10.4 °F -8.6 °F -2.2 °F 57% 30.20 in 10.0 mi NNW 20.7 mph 28.8 mph N/A   Clear
7:35 AM 10.4 °F -7.2 °F -2.2 °F 57% 30.21 in 10.0 mi NW 17.3 mph 24.2 mph N/A   Clear
7:55 AM 10.4 °F -6.0 °F -0.4 °F 62% 30.22 in 10.0 mi NNW 15.0 mph 23.0 mph N/A   Clear
8:15 AM 10.4 °F -6.6 °F -2.2 °F 57% 30.22 in 10.0 mi NNW 16.1 mph 26.5 mph N/A   Clear
8:35 AM 10.4 °F -8.6 °F -2.2 °F 57% 30.22 in 10.0 mi NNW 20.7 mph 27.6 mph N/A   Clear
8:55 AM 10.4 °F -7.2 °F -0.4 °F 62% 30.23 in 10.0 mi NNW 17.3 mph 24.2 mph N/A   Clear
9:15 AM 10.4 °F -7.7 °F -2.2 °F 57% 30.23 in 10.0 mi NNW 18.4 mph 23.0 mph N/A   Clear
9:35 AM 12.2 °F -3.7 °F -2.2 °F 53% 30.24 in 10.0 mi NNW 15.0 mph 23.0 mph N/A   Clear
9:55 AM 12.2 °F -4.8 °F -0.4 °F 57% 30.25 in 10.0 mi NNW 17.3 mph 26.5 mph N/A   Clear
10:15 AM 12.2 °F -2.5 °F -0.4 °F 57% 30.26 in 10.0 mi NNW 12.7 mph 24.2 mph N/A   Clear
10:35 AM 12.2 °F -5.3 °F -0.4 °F 57% 30.26 in 10.0 mi NW 18.4 mph 21.9 mph N/A   Clear
10:55 AM 14.0 °F -2.0 °F -0.4 °F 53% 30.27 in 10.0 mi NNW 16.1 mph 25.3 mph N/A   Clear
11:15 AM 15.8 °F -0.2 °F 1.4 °F 53% 30.27 in 10.0 mi NW 17.3 mph 24.2 mph N/A   Clear
11:35 AM 15.8 °F 0.9 °F 3.2 °F 58% 30.27 in 10.0 mi NNW 15.0 mph 25.3 mph N/A   Clear
11:55 AM 15.8 °F -0.2 °F 3.2 °F 58% 30.27 in 10.0 mi WNW 17.3 mph 24.2 mph N/A   Clear
12:15 PM 17.6 °F 2.7 °F 5.0 °F 58% 30.26 in 10.0 mi WNW 16.1 mph 21.9 mph N/A   Scattered Clouds
12:35 PM 17.6 °F 2.2 °F 3.2 °F 53% 30.26 in 10.0 mi NW 17.3 mph 20.7 mph N/A   Mostly Cloudy
12:55 PM 17.6 °F 1.7 °F 5.0 °F 58% 30.26 in 10.0 mi NW 18.4 mph 24.2 mph N/A   Mostly Cloudy
1:15 PM 17.6 °F 2.7 °F 5.0 °F 58% 30.26 in 10.0 mi NW 16.1 mph 24.2 mph N/A   Mostly Cloudy
1:35 PM 19.4 °F 5.0 °F 6.8 °F 58% 30.25 in 10.0 mi NW 16.1 mph 21.9 mph N/A   Overcast
1:54 PM 19.4 °F 5.5 °F 6.8 °F 58% 30.25 in 10.0 mi WNW 15.0 mph 19.6 mph N/A   Overcast
2:15 PM 19.4 °F 6.0 °F 5.0 °F 54% 30.24 in 10.0 mi WNW 13.8 mph - N/A   Overcast
2:35 PM 19.4 °F 7.2 °F 6.8 °F 58% 30.23 in 10.0 mi WNW 11.5 mph 20.7 mph N/A   Overcast
2:55 PM 19.4 °F 5.5 °F 6.8 °F 58% 30.23 in 10.0 mi WNW 15.0 mph 19.6 mph N/A   Overcast
3:15 PM 19.4 °F 6.0 °F 6.8 °F 58% 30.22 in 10.0 mi WNW 13.8 mph 23.0 mph N/A   Overcast
3:35 PM 19.4 °F 7.2 °F 6.8 °F 58% 30.22 in 10.0 mi WNW 11.5 mph 16.1 mph N/A   Overcast
3:55 PM 19.4 °F 5.5 °F 6.8 °F 58% 30.22 in 10.0 mi WNW 15.0 mph 19.6 mph N/A   Overcast
4:15 PM 19.4 °F 6.0 °F 6.8 °F 58% 30.22 in 7.0 mi West 13.8 mph - N/A   Overcast
4:34 PM 19.4 °F 5.5 °F 6.8 °F 58% 30.21 in 10.0 mi WNW 15.0 mph 20.7 mph N/A   Overcast
4:55 PM 19.4 °F 5.5 °F 6.8 °F 58% 30.21 in 10.0 mi NW 15.0 mph - N/A   Overcast
5:15 PM 19.4 °F 8.6 °F 6.8 °F 58% 30.21 in 10.0 mi WNW 9.2 mph 18.4 mph N/A   Overcast
5:35 PM 19.4 °F 6.6 °F 6.8 °F 58% 30.20 in 10.0 mi WNW 12.7 mph 19.6 mph N/A   Overcast
5:55 PM 19.4 °F 6.6 °F 6.8 °F 58% 30.20 in 10.0 mi WNW 12.7 mph - N/A   Overcast
6:15 PM 19.4 °F 8.6 °F 6.8 °F 58% 30.20 in 10.0 mi WNW 9.2 mph 16.1 mph N/A   Overcast
6:35 PM 19.4 °F 7.2 °F 6.8 °F 58% 30.20 in 10.0 mi WNW 11.5 mph - N/A   Scattered Clouds
6:55 PM 19.4 °F 7.9 °F 6.8 °F 58% 30.19 in 10.0 mi WNW 10.4 mph - N/A   Clear
7:15 PM 19.4 °F 11.5 °F 6.8 °F 58% 30.19 in 10.0 mi WNW 5.8 mph - N/A   Clear
7:35 PM 17.6 °F 10.7 °F 8.6 °F 68% 30.19 in 10.0 mi WNW 4.6 mph - N/A   Clear
7:55 PM 17.6 °F 12.3 °F 6.8 °F 63% 30.18 in 10.0 mi WNW 3.5 mph - N/A   Clear
8:15 PM 17.6 °F - 8.6 °F 68% 30.18 in 10.0 mi Calm Calm - N/A   Clear
8:35 PM 17.6 °F - 8.6 °F 68% 30.18 in 10.0 mi Calm Calm - N/A   Clear
8:55 PM 17.6 °F - 6.8 °F 63% 30.18 in 10.0 mi Calm Calm - N/A   Clear
9:15 PM 15.8 °F - 6.8 °F 68% 30.17 in 10.0 mi Calm Calm - N/A   Clear
9:35 PM 15.8 °F - 8.6 °F 73% 30.18 in 10.0 mi Calm Calm - N/A   Clear
9:55 PM 14.0 °F - 10.4 °F 86% 30.17 in 10.0 mi Calm Calm - N/A   Clear
10:15 PM 15.8 °F - 8.6 °F 73% 30.17 in 10.0 mi Calm Calm - N/A   Clear
10:35 PM 12.2 °F - 8.6 °F 85% 30.18 in 10.0 mi Calm Calm - N/A   Clear
10:55 PM 12.2 °F - 10.4 °F 92% 30.18 in 10.0 mi Calm Calm - N/A   Clear
11:15 PM 12.2 °F - 8.6 °F 85% 30.17 in 10.0 mi Calm Calm - N/A   Clear
11:35 PM 12.2 °F - 8.6 °F 85% 30.17 in 10.0 mi Calm Calm - N/A   Clear
11:55 PM 12.2 °F - 8.6 °F 85% 30.17 in 10.0 mi Calm Calm - N/A   Clear